FW4370 Weather Reports


Display with metric or nautical units.
time (UTC)temp
F
wind
direction
speed
MPH
gust
MPH
rain 1hr
in
rain 24hr
in
rain mn
in
humidity
%
barometer
mb
20260503060108 61 226 0.0 1.0 0.00 0.00 0.00 20 1009.8
20260503054557 60 219 0.0 0.0 0.00 0.00 0.00 19 1009.9
20260503053047 61 278 0.0 2.0 0.00 0.00 0.00 19 1009.8
20260503051546 61 261 0.0 4.0 0.00 0.00 0.00 19 1010.0
20260503050044 62 231 1.0 8.0 0.00 0.00 0.00 19 1009.8
20260503044540 61 264 1.0 5.0 0.00 0.00 0.00 18 1009.7
20260503043039 62 250 0.0 5.0 0.00 0.00 0.00 18 1009.5
20260503041541 62 208 1.0 5.0 0.00 0.00 0.00 18 1009.4
20260503040038 63 255 2.0 6.0 0.00 0.00 0.00 17 1009.2
20260503034533 63 245 1.0 8.0 0.00 0.00 0.00 17 1008.9
20260503033036 63 240 3.0 8.0 0.00 0.00 0.00 16 1008.8
20260503031528 63 257 3.0 9.0 0.00 0.00 0.00 16 1008.6
20260503030033 64 255 2.0 5.0 0.00 0.00 0.00 15 1008.5
20260503024525 65 262 1.0 6.0 0.00 0.00 0.00 15 1008.3
20260503023024 67 231 4.0 11.0 0.00 0.00 0.00 15 1008.1
20260503021524 68 181 5.0 10.0 0.00 0.00 0.00 14 1008.1
20260503020022 69 223 5.0 9.0 0.00 0.00 0.00 14 1007.9
20260503014518 70 200 4.0 10.0 0.00 0.00 0.00 13 1007.7
20260503013017 71 236 6.0 12.0 0.00 0.00 0.00 13 1007.9
20260503011514 71 203 1.0 5.0 0.00 0.00 0.00 12 1007.7
20260503010013 71 193 3.0 7.0 0.00 0.00 0.00 12 1007.6
20260503004511 72 157 0.0 4.0 0.00 0.00 0.00 12 1007.6
20260503003009 72 143 2.0 6.0 0.00 0.00 0.00 11 1007.6
20260503001511 72 101 3.0 5.0 0.00 0.00 0.00 11 1007.6
20260503000004 72 138 2.0 6.0 0.00 0.00 0.00 11 1007.6
20260502234502 73 79 1.0 10.0 0.00 0.00 0.00 11 1007.6
20260502233001 74 84 3.0 8.0 0.00 0.00 0.00 11 1007.3
20260502231600 73 69 4.0 10.0 0.00 0.00 0.00 11 1007.5
20260502230056 74 158 2.0 7.0 0.00 0.00 0.00 11 1007.5
20260502224553 76 68 3.0 5.0 0.00 0.00 0.00 11 1007.6
20260502223046 76 141 2.0 8.0 0.00 0.00 0.00 11 1008.0
20260502221543 76 150 2.0 4.0 0.00 0.00 0.00 11 1008.3
20260502220039 75 184 2.0 11.0 0.00 0.00 0.00 11 1008.7
20260502214535 76 130 2.0 8.0 0.00 0.00 0.00 11 1008.9
20260502213030 75 344 1.0 10.0 0.00 0.00 0.00 12 1009.1
20260502211528 74 65 5.0 13.0 0.00 0.00 0.00 11 1009.4
20260502210024 75 65 2.0 13.0 0.00 0.00 0.00 12 1009.5
20260502204524 74 84 6.0 14.0 0.00 0.00 0.00 12 1009.8
20260502203018 72 193 3.0 13.0 0.00 0.00 0.00 12 1009.9
20260502201516 73 58 1.0 8.0 0.00 0.00 0.00 12 1010.2
20260502200114 73 76 6.0 9.0 0.00 0.00 0.00 12 1010.3
20260502194509 74 144 1.0 8.0 0.00 0.00 0.00 13 1010.4
20260502193007 73 300 2.0 11.0 0.00 0.00 0.00 13 1010.7
20260502191502 72 56 3.0 8.0 0.00 0.00 0.00 13 1010.9
20260502190110 71 116 5.0 11.0 0.00 0.00 0.00 14 1011.0
20260502184602 71 145 3.0 8.0 0.00 0.00 0.00 14 1011.2
20260502183109 71 45 1.0 10.0 0.00 0.00 0.00 14 1011.3
20260502181552 71 157 2.0 8.0 0.00 0.00 0.00 15 1011.7
20260502163026 64 60 5.0 10.0 0.00 0.00 0.00 18 1012.2
20260502161522 63 73 3.0 8.0 0.00 0.00 0.00 18 1012.3
20260502151507 60 62 1.0 6.0 0.00 0.00 0.00 20 1012.1
20260502123035 45 349 0.0 0.0 0.00 0.00 0.00 22 1010.8
20260502121540 43 349 0.0 0.0 0.00 0.00 0.00 22 1010.8
20260502114523 45 349 0.0 0.0 0.00 0.00 0.00 21 1010.7
20260502113018 44 349 0.0 0.0 0.00 0.00 0.00 21 1010.7
20260502111520 45 349 0.0 1.0 0.00 0.00 0.00 20 1010.7
20260502110017 45 349 0.0 0.0 0.00 0.00 0.00 20 1010.8
20260502104509 46 349 0.0 1.0 0.00 0.00 0.00 20 1010.7
20260502103005 47 17 0.0 0.0 0.00 0.00 0.00 20 1010.6
20260502101502 48 17 0.0 0.0 0.00 0.00 0.00 19 1010.7
20260502071525 52 73 0.0 0.0 0.00 0.00 0.00 16 1010.7
20260502070022 51 74 0.0 0.0 0.00 0.00 0.00 15 1010.6
20260502064517 53 74 0.0 2.0 0.00 0.00 0.00 15 1010.6